TimeEDT,TemperatureF,Dew PointF,Humidity,Sea Level PressureIn,VisibilityMPH,Wind Direction,Wind SpeedMPH,Gust SpeedMPH,PrecipitationIn,Events,Conditions,WindDirDegrees,DateUTC
12:54 AM,63.0,61.0,93,30.13,10.0,SW,5.8,-,N/A,,Mostly Cloudy,230,2013-08-19 04:54:00
1:54 AM,64.0,60.1,87,30.13,10.0,SW,6.9,-,N/A,,Overcast,230,2013-08-19 05:54:00
2:54 AM,62.1,59.0,90,30.12,10.0,SW,4.6,-,N/A,,Mostly Cloudy,230,2013-08-19 06:54:00
3:54 AM,61.0,57.9,90,30.12,10.0,SW,5.8,-,N/A,,Scattered Clouds,230,2013-08-19 07:54:00
4:54 AM,60.1,57.9,93,30.12,10.0,SW,5.8,-,N/A,,Mostly Cloudy,230,2013-08-19 08:54:00
5:54 AM,60.1,57.0,90,30.13,10.0,SW,4.6,-,N/A,,Scattered Clouds,230,2013-08-19 09:54:00
6:54 AM,60.1,57.9,93,30.12,7.0,SW,3.5,-,N/A,,Scattered Clouds,230,2013-08-19 10:54:00
7:54 AM,64.0,60.1,87,30.12,10.0,SW,5.8,-,N/A,,Partly Cloudy,230,2013-08-19 11:54:00
8:54 AM,68.0,61.0,78,30.12,10.0,SW,6.9,-,N/A,,Partly Cloudy,220,2013-08-19 12:54:00
9:54 AM,72.0,63.0,73,30.11,10.0,SW,9.2,-,N/A,,Partly Cloudy,230,2013-08-19 13:54:00
10:54 AM,75.9,63.0,64,30.10,10.0,SW,6.9,-,N/A,,Partly Cloudy,220,2013-08-19 14:54:00
11:54 AM,78.1,62.1,58,30.09,10.0,SSW,3.5,-,N/A,,Scattered Clouds,210,2013-08-19 15:54:00
12:54 PM,79.0,59.0,50,30.08,10.0,West,4.6,-,N/A,,Mostly Cloudy,270,2013-08-19 16:54:00
1:54 PM,81.0,57.0,44,30.07,10.0,WNW,6.9,-,N/A,,Mostly Cloudy,290,2013-08-19 17:54:00
2:54 PM,81.0,63.0,54,30.06,10.0,North,4.6,-,N/A,,Mostly Cloudy,10,2013-08-19 18:54:00
3:54 PM,81.0,63.0,54,30.06,10.0,North,5.8,-,N/A,,Scattered Clouds,350,2013-08-19 19:54:00
4:54 PM,79.0,61.0,54,30.05,10.0,WNW,9.2,-,N/A,,Mostly Cloudy,300,2013-08-19 20:54:00
5:54 PM,80.1,59.0,48,30.04,10.0,WNW,8.1,-,N/A,,Partly Cloudy,290,2013-08-19 21:54:00
6:54 PM,79.0,57.9,48,30.04,10.0,West,8.1,-,N/A,,Partly Cloudy,280,2013-08-19 22:54:00
7:54 PM,75.9,59.0,56,30.04,10.0,WSW,3.5,-,N/A,,Partly Cloudy,250,2013-08-19 23:54:00
8:54 PM,69.1,61.0,75,30.05,10.0,SW,3.5,-,N/A,,Clear,230,2013-08-20 00:54:00
9:54 PM,68.0,61.0,78,30.06,10.0,West,5.8,-,N/A,,Clear,260,2013-08-20 01:54:00
10:54 PM,66.0,60.1,81,30.06,10.0,WSW,5.8,-,N/A,,Clear,250,2013-08-20 02:54:00
11:54 PM,64.9,59.0,81,30.06,10.0,SSW,4.6,-,N/A,,Clear,210,2013-08-20 03:54:00